SCP
6 5 4 3 4 5 7 6 5 4 4 4 4 4 3 3 3 2 3 4 4 3 2 1 1 1 1 1 1 1 1 1 1 1 1 2 2 2 3 4 4 4 5
6 5 4 4 5 6 7 7 5 4 4 4 5 4 4 3 3 3 4 5 4 3 2 1 1 1 1 1 1 1 1 1 1 1 1 2 1 1 2 2 3 4 5
5 5 5 5 6 7 7 7 6 5 5 5 5 4 4 4 4 4 4 5 4 4 2 2 1 1 1 2 2 2 2 2 1 1 1 2 2 1 1 2 2 3 4
4 4 5 5 6 7 7 7 7 6 6 6 5 4 4 4 3 4 4 4 4 3 2 2 2 2 2 2 2 2 2 2 2 2 2 2 2 2 2 2 2 2 3
4 5 6 7 8 8 8 8 8 8 7 6 5 5 5 4 3 3 4 4 3 3 2 2 2 3 2 2 3 3 3 2 2 1 2 2 2 2 3 3 3 3 3
5 6 9 10 9 9 9 9 10 9 8 7 6 5 5 4 3 3 4 3 3 3 3 3 3 3 3 3 4 4 3 2 2 2 2 2 2 3 3 4 4 4 4
7 8 9 10 9 9 9 10 11 11 10 8 7 6 5 4 3 3 3 3 3 3 3 4 5 5 4 4 5 4 3 3 2 2 2 2 3 4 4 5 5 4 4
8 8 8 8 8 9 10 11 12 13 12 10 8 7 6 4 4 3 3 3 3 3 4 6 7 7 5 5 5 4 3 3 3 3 3 4 5 6 7 7 7 6 6
8 7 7 7 8 9 11 11 13 14 14 12 10 9 7 5 4 4 4 4 4 5 6 8 9 7 6 5 5 5 4 4 4 4 4 5 7 9 10 11 12 11 9
7 7 6 7 8 9 10 12 15 16 15 13 11 10 8 7 5 5 6 6 7 8 8 9 9 8 6 6 6 6 5 5 5 5 5 6 8 10 11 12 13 13 13
7 6 6 7 9 9 11 14 16 18 17 15 13 12 10 8 8 8 8 9 9 9 9 8 8 8 7 7 7 7 7 6 6 6 6 7 8 8 9 9 10 12 12
10 9 9 9 9 10 12 15 18 18 17 16 15 14 12 10 9 9 10 9 9 8 8 8 8 8 8 9 9 9 9 9 8 8 8 8 9 9 9 9 9 9 10
17 18 18 17 17 17 18 20 20 19 17 15 14 13 11 10 10 10 9 9 9 9 9 9 8 8 9 10 11 11 11 11 11 10 10 10 11 11 11 10 9 8 8
18 20 23 25 27 27 27 25 22 19 16 13 11 10 10 10 10 9 9 8 9 10 10 9 8 8 9 10 11 11 11 11 11 11 10 10 10 10 10 10 9 7 7
11 13 17 21 25 26 26 24 22 20 17 14 11 11 11 11 10 9 9 9 10 10 10 9 8 8 8 8 9 9 10 10 9 9 8 8 7 7 6 7 7 6 5
8 8 9 13 16 17 18 19 19 19 17 16 14 13 12 11 10 10 11 12 11 10 9 8 7 7 7 6 6 7 7 8 7 6 5 5 4 4 4 4 4 4 3
7 8 9 10 11 12 13 15 17 17 17 18 17 14 12 10 9 11 13 13 12 10 8 8 8 7 6 4 3 4 5 6 6 5 5 4 3 3 3 3 2 2 2
8 9 11 11 11 11 12 13 14 15 17 19 18 15 12 11 11 11 12 12 11 9 9 9 9 9 6 4 2 3 4 5 6 6 5 5 4 3 3 3 2 2 2
8 10 11 12 11 11 11 11 12 15 17 18 17 15 13 12 12 11 11 10 10 9 9 9 9 8 7 4 2 2 3 5 5 6 6 5 4 3 2 3 3 3 2
7 8 11 12 12 11 11 11 12 14 16 15 14 12 11 11 11 11 11 11 10 9 8 8 7 7 6 4 2 2 4 4 4 5 4 4 3 3 2 2 3 3 3
7 9 11 13 13 12 11 11 12 12 11 10 10 9 8 9 10 10 11 12 10 8 8 7 6 5 5 5 3 2 4 5 5 4 4 3 2 2 1 2 2 2 2
10 10 12 13 14 13 11 10 10 9 8 7 7 7 7 7 8 9 10 12 11 9 8 7 6 5 5 5 3 2 3 5 6 6 5 3 2 1 1 1 1 1 1
12 11 11 12 13 11 9 8 8 8 7 7 7 6 5 5 6 7 9 11 12 10 8 6 5 4 5 6 4 2 2 3 5 6 5 3 1 0 0 0 0 1 1
11 9 8 8 9 8 7 6 8 8 7 7 6 5 4 5 7 8 9 10 11 11 9 7 6 5 5 6 5 3 2 2 3 5 4 2 1 0 0 0 1 1 1
9 7 5 5 6 6 6 6 8 8 7 7 6 5 4 5 7 8 7 7 8 9 9 8 7 6 5 5 5 4 3 3 3 4 5 3 2 1 1 1 1 1 2
8 6 4 4 5 6 6 7 8 8 7 6 5 4 4 4 5 6 6 6 6 7 8 8 8 6 5 4 3 3 3 3 4 5 6 5 3 2 1 1 1 2 2
Wind_Speed
15 13 13 13 13 11 10 8 7 6 5 4 4 3 2 2 2 3 4 4 3 3 2 1 2 1 1 1 1 1 1 1 1 1 1 1 3 3 3 2 2 2 3
15 15 14 14 13 12 11 10 8 8 6 4 3 3 3 3 3 2 4 4 4 3 3 2 2 2 1 1 1 1 1 2 2 1 1 1 1 2 3 3 3 3 2
17 16 14 14 14 13 13 10 9 8 7 6 4 3 3 2 2 3 4 4 4 4 2 2 1 1 1 2 2 2 2 2 2 2 1 1 1 1 1 3 2 2 2
16 16 15 15 15 14 13 10 9 8 8 7 6 6 4 4 4 3 4 4 4 4 4 2 2 1 1 1 2 2 2 2 2 2 2 2 1 1 1 1 1 2 2
15 16 16 15 15 14 13 12 10 9 8 7 6 5 5 4 3 4 4 4 4 4 4 4 3 2 1 1 1 1 1 1 2 2 1 2 2 3 2 2 1 1 2
15 14 14 13 13 14 13 13 11 10 9 9 7 6 5 5 4 5 5 5 4 4 4 4 3 3 2 2 2 2 1 1 2 2 2 2 2 2 2 2 2 2 2
12 13 13 13 13 14 14 14 13 11 10 9 8 7 6 5 5 5 5 4 4 4 4 4 4 3 2 2 1 2 2 1 2 3 2 2 3 2 1 1 2 2 2
11 12 13 12 11 12 13 13 13 12 12 11 8 7 6 6 5 5 4 4 3 4 5 5 4 4 3 3 2 2 2 2 3 3 2 2 3 2 1 1 1 2 2
10 10 11 11 11 11 11 12 13 12 12 11 9 7 7 6 5 5 5 3 3 3 5 5 4 4 3 2 2 2 2 2 3 2 3 2 2 2 2 1 1 2 3
6 8 10 11 11 11 11 11 11 12 11 10 9 9 8 7 5 5 5 3 3 3 3 4 4 4 3 3 2 2 2 2 2 2 2 2 2 2 2 2 2 2 2
5 6 6 9 11 11 11 11 10 11 10 10 8 7 8 8 7 5 4 4 3 3 3 3 3 3 3 3 3 3 3 2 2 2 2 2 2 2 2 2 1 2 2
3 3 4 5 7 9 10 9 9 10 10 9 8 7 7 7 7 6 5 4 4 4 4 3 3 4 3 3 3 3 3 3 3 2 2 2 2 2 3 2 2 2 2
3 3 4 3 3 5 6 7 9 10 10 9 9 8 8 7 7 6 6 5 5 4 4 4 4 4 3 3 3 3 3 3 3 2 2 3 3 2 2 3 3 3 3
2 3 3 3 2 2 3 5 7 7 9 9 10 9 8 7 7 7 6 6 6 5 5 5 4 4 3 3 3 3 3 3 3 3 2 3 2 2 3 3 3 3 3
2 2 3 3 2 2 2 3 5 6 7 7 8 9 8 7 6 6 6 6 6 7 5 5 5 4 4 4 3 3 4 3 3 3 2 2 1 1 2 3 2 3 3
1 1 2 2 2 2 2 2 3 4 5 6 7 7 7 7 7 6 6 6 6 5 5 5 5 5 5 3 3 3 3 3 3 3 2 2 2 2 3 2 2 3 3
2 2 2 2 1 2 2 2 2 3 4 5 5 6 6 6 6 7 6 6 5 4 4 4 4 4 3 4 4 4 3 3 3 3 2 4 2 1 1 1 2 2 3
1 0 1 2 2 2 2 1 2 2 4 4 4 4 5 5 5 5 5 5 4 4 4 3 3 3 3 3 3 4 5 4 3 3 3 2 1 2 1 1 1 1 2
2 2 1 1 1 1 1 1 2 3 4 4 4 4 4 4 4 5 5 4 4 4 4 3 3 3 2 2 2 3 3 3 2 2 1 1 1 0 1 1 1 1 1
2 1 1 0 1 1 1 1 1 2 3 2 2 2 2 3 3 3 3 3 3 3 3 3 2 2 2 2 2 3 2 2 2 1 1 1 2 2 1 1 1 1 1
2 1 1 1 2 1 1 1 0 1 2 2 2 2 2 3 3 3 3 3 4 4 3 3 2 2 3 3 2 2 2 2 2 1 1 1 2 2 1 1 0 1 2
1 1 1 2 2 1 1 1 1 1 2 2 2 3 2 3 3 3 3 4 4 4 3 2 2 2 3 3 3 3 2 2 2 1 0 1 2 2 2 1 1 1 2
1 0 2 2 2 1 1 2 1 1 2 2 2 2 2 1 2 3 4 4 3 3 3 3 3 2 2 3 4 3 2 1 1 1 2 2 2 1 1 2 2 2 2
0 1 2 3 2 2 1 2 1 1 2 2 2 2 2 2 1 1 2 3 3 3 2 2 2 2 2 2 2 2 1 1 1 1 2 2 1 1 0 0 1 1 1
1 2 2 2 2 2 2 2 2 1 2 2 2 2 2 2 2 2 1 2 2 2 3 2 2 2 2 1 2 2 1 1 1 1 1 1 1 1 1 1 0 0 0
1 2 2 2 2 2 2 2 2 2 3 3 3 2 2 2 3 3 3 5 3 4 4 2 2 2 3 5 4 3 3 2 2 1 1 1 1 1 1 1 1 1 1
Wind_Direction
170 168 165 163 159 155 156 160 161 157 159 161 168 170 167 166 154 146 137 145 155 160 180 180 136 170 170 154 139 125 209 244 211 226 265 239 224 223 216 220 228 209 210
170 171 171 170 167 162 163 164 166 165 172 172 176 172 171 168 165 152 143 157 168 169 178 183 180 182 178 170 175 176 222 253 224 201 231 267 254 255 217 201 208 214 215
174 173 176 175 171 170 169 172 172 169 177 173 173 176 161 169 161 156 158 169 172 171 188 169 188 195 195 177 194 198 216 252 268 227 213 224 238 262 246 223 207 195 216
174 174 177 180 179 175 171 167 168 171 176 175 179 178 170 176 181 168 163 170 179 180 178 181 181 220 229 185 215 199 227 235 261 247 229 227 221 211 268 267 216 201 215
176 176 180 182 180 177 173 168 167 173 175 179 184 183 184 185 174 165 161 168 177 183 180 179 181 200 217 248 255 268 256 245 261 266 257 248 235 224 222 248 254 248 231
174 172 175 176 179 177 173 170 170 176 177 181 186 186 191 189 185 179 169 177 176 183 185 181 185 193 205 226 233 249 244 263 290 293 289 270 257 243 227 236 240 241 247
163 166 171 176 179 176 175 173 173 178 180 182 188 187 190 193 194 189 185 188 180 181 184 183 174 184 205 216 219 231 243 252 278 277 281 289 283 276 267 258 253 255 258
165 169 173 171 176 179 177 174 173 177 180 184 191 190 187 194 201 203 199 192 192 180 172 175 171 182 199 210 204 226 226 223 240 252 264 274 279 285 265 248 254 268 268
167 169 167 167 173 182 181 179 173 176 182 185 186 187 190 199 202 193 202 201 196 186 169 170 174 183 196 207 209 220 232 222 232 238 244 255 266 268 261 246 235 245 260
157 161 166 170 172 181 185 184 175 179 181 183 189 190 191 195 199 200 197 196 189 187 172 174 178 185 190 200 216 219 225 236 252 249 263 273 275 279 262 244 234 241 252
161 152 156 170 172 178 185 180 176 176 178 183 186 187 185 188 194 196 194 189 198 192 187 184 184 188 188 188 205 221 211 226 247 256 254 274 302 303 303 297 270 250 234
105 120 141 157 168 175 181 177 175 177 177 179 180 185 184 184 190 189 191 188 191 201 193 186 189 198 187 190 205 221 222 215 228 243 249 258 263 273 297 297 283 271 245
100 112 118 144 166 174 175 178 181 181 180 179 181 184 188 187 189 190 188 189 190 199 197 190 200 205 201 201 215 220 227 230 228 234 249 264 273 272 278 281 280 279 274
91 109 122 129 141 150 163 171 179 180 181 183 184 186 188 189 191 192 190 189 192 198 199 197 203 208 203 209 219 228 239 243 238 236 244 256 258 270 277 271 267 268 276
76 85 113 119 136 138 180 193 176 179 179 180 182 183 184 183 189 193 190 193 197 202 196 200 205 206 212 223 218 224 233 235 242 241 240 255 268 302 283 283 298 289 279
170 141 123 128 153 160 195 194 182 184 178 180 184 180 181 185 191 194 192 192 197 203 200 204 205 213 224 204 212 227 242 235 239 243 237 235 220 214 222 252 282 282 271
211 199 187 164 189 185 193 191 196 186 182 178 181 178 184 192 197 201 196 196 196 200 204 212 210 212 205 209 217 226 233 237 236 235 245 266 261 218 226 256 267 286 271
24 27 191 175 187 191 173 170 198 200 174 172 177 172 181 190 192 193 193 192 187 196 205 213 214 211 215 214 223 233 235 242 236 227 234 241 254 280 276 264 283 299 303
9 11 331 202 180 172 162 163 208 186 176 176 170 173 182 186 188 192 188 179 177 187 199 205 205 203 200 199 211 225 244 243 237 226 234 216 189 351 337 236 242 256 261
347 342 313 26 106 130 173 185 199 163 164 163 148 143 157 179 188 185 181 173 181 191 196 191 193 186 164 170 190 214 249 254 241 207 191 153 146 147 152 229 244 267 295
337 349 1 61 62 77 114 132 140 165 149 134 139 149 164 185 185 182 180 176 189 191 191 183 179 155 151 162 183 201 243 257 248 228 210 174 153 144 151 186 230 254 291
4 1 57 76 82 79 131 133 105 112 121 136 146 152 177 206 184 175 187 191 192 188 181 179 182 166 156 158 174 196 226 262 256 255 148 134 166 167 178 183 232 290 295
38 209 129 108 106 99 137 141 137 147 137 136 147 157 178 188 178 184 189 188 186 189 186 181 187 178 163 153 148 175 220 259 284 41 94 115 135 158 164 191 241 267 265
328 128 126 127 118 117 109 127 128 139 141 151 152 162 174 179 159 176 190 180 176 180 177 188 190 184 174 157 150 162 155 147 139 111 115 117 150 193 104 188 235 244 295
109 115 119 128 140 145 130 140 137 154 152 155 166 183 186 170 134 143 130 159 136 163 179 197 198 183 163 161 144 149 154 159 161 158 165 144 134 157 156 146 185 259 284
115 125 144 158 162 161 147 144 148 162 165 185 198 198 187 165 166 161 126 65 84 107 116 126 136 110 132 138 126 120 120 136 144 142 187 191 187 182 182 181 216 248 262